Tracking 20942 objects as of 9-Jul-2020
HD Live streaming from Space Station
objects crossing your sky now

FENGYUN 1C DEB

Track FENGYUN 1C DEB now!
10-day predictions


NORAD ID: 30515
Int'l Code: 1999-025AJD
Perigee: 668.1 km
Apogee: 1,452.4 km
Inclination: 98.5 °
Period: 106.3 minutes
Semi major axis: 7431 km
RCS: 0.0145 m2 (small)
Launch date: May 10, 1999
Source: People's Republic of China (PRC)
Launch site: Taiyaun Space Center, China (TSC)

Note: This is SATELLITE DEBRIS
aabbcc
Your satellite tracking list
Your tracking list is empty




NASA's NSSDC Master Catalog

Two Line Element Set (TLE):
1 30515U 99025AJD 20191.26055309 +.00000638 +00000-0 +39915-3 0  9999
2 30515 098.5392 294.5057 0527728 237.8982 147.3213 13.55214042664222
Source of the keplerian elements: AFSPC